Meteo Giornale » Osservazioni meteo Gran Bretagna » Leeming

ore: 14:50 - Osservazioni Meteo Leeming
Lat. 54° 18' N Lon. 1° 32' W Alt. 40 metri s.l.m.

molto_nuvoloso Europe/London

21 °C

Molto Nuvoloso

Temp. 24 Ore

15 °C

21 °C

Ovest/Sud-Ovest

24 Km/h

Dew point 16 °C

Umidità 73 %

Visibilità  10 Km

Il sole sorge alle ore 06:54

Il sole tramonta alle ore 19:01

Data e Ora Cielo e Fenomeni T °C DP °C Um. % Pres. hPa Vis. km Vento km/h
Oggi h: 14:50 molto_nuvoloso Molto Nuvoloso 21 16 73 1010 10 O/SO 24
Oggi h: 13:50 molto_nuvoloso Molto Nuvoloso 21 16 73 1010 10 O/SO 27.8
Oggi h: 13:20 molto_nuvoloso Molto Nuvoloso 21 16 73 1010 10 O 27.8
Oggi h: 12:50 molto_nuvoloso Molto Nuvoloso 20 15 72 1010 10 O 22.2
Oggi h: 12:20 nuvoloso Nuvoloso 21 16 73 1010 10 O/SO 27.8
Oggi h: 11:50 molto_nuvoloso Molto Nuvoloso 20 15 72 1010 10 O/SO 25.9
Oggi h: 11:20 molto_nuvoloso Molto Nuvoloso 18 14 77 1010 10 S 24
Oggi h: 10:50 molto_nuvoloso Molto Nuvoloso 19 15 77 1010 10 SO 22.2
Oggi h: 10:20 nuvoloso Nuvoloso 19 14 72 1010 10 O/SO 27.8
Oggi h: 09:50 molto_nuvoloso Molto Nuvoloso 18 13 72 1010 10 S/SO 16.7
Oggi h: 07:50 molto_nuvoloso Molto Nuvoloso 15 12 82 1010 10 S/SO 22.2
Oggi h: 05:50 molto_nuvoloso Molto Nuvoloso 15 11 76 1012 10 O/SO 22.2
Oggi h: 04:50 poco_nuvoloso Poco Nuvoloso 16 11 72 1011 10 O/SO 33.3
Oggi h: 03:50 poco_nuvoloso Poco Nuvoloso 15 11 76 1012 10 O/SO 29.6
Oggi h: 02:50 molto_nuvoloso Molto Nuvoloso 16 12 77 1013 10 SO 16.7
Oggi h: 01:50 coperto Coperto 16 13 82 1014 10 SO 16.7
Oggi h: 00:50 coperto Coperto 16 12 77 1015 10 O/SO 18.5
Ieri h: 23:50 molto_nuvoloso Molto Nuvoloso 15 12 82 1015 10 O/SO 14.8
Ieri h: 22:50 molto_nuvoloso Molto Nuvoloso 16 12 77 1016 10 SO 14.8
Ieri h: 22:20 molto_nuvoloso Molto Nuvoloso 15 12 82 1016 10 O/SO 14.8
Ieri h: 21:50 molto_nuvoloso Molto Nuvoloso 15 12 82 1016 10 SO 16.7
Ieri h: 20:50 molto_nuvoloso Molto Nuvoloso 15 12 82 1016 10 O 16.7
Ieri h: 20:20 poco_nuvoloso Poco Nuvoloso 15 12 82 1016 10 O 16.7
Ieri h: 19:20 molto_nuvoloso Molto Nuvoloso 15 12 82 1017 10 O/SO 9.3
Ieri h: 18:50 molto_nuvoloso Molto Nuvoloso 16 12 77 1017 10 O/SO 14.8
Ieri h: 18:20 molto_nuvoloso Molto Nuvoloso 16 12 77 1017 10 O 16.7
Ieri h: 17:50 molto_nuvoloso Molto Nuvoloso 16 12 77 1016 10 O 16.7
Ieri h: 17:20 molto_nuvoloso Molto Nuvoloso 16 12 77 1016 10 O 24
Ieri h: 16:50 molto_nuvoloso Molto Nuvoloso 16 12 77 1016 10 O/SO 18.5
Ieri h: 16:20 molto_nuvoloso Molto Nuvoloso 16 12 77 1016 10 O/SO 24
Ieri h: 15:50 molto_nuvoloso Molto Nuvoloso 17 12 72 1016 10 O/SO 25.9